Temp
-9 -9 -9 -9 -9 -9 -9 -9 -9 -9 -9 -9 -9 -9 -10 -10 -10 -10 -10 -10 -10 -10 -10 -10 -10 -10 -10 -10 -10 -10 -10 -10 -10 -10 -10 -10 -10 -10 -10 -10 -10 -10 -10 -10 -10 -10 -10 -10 -9
-9 -9 -9 -9 -9 -9 -9 -9 -9 -9 -9 -9 -9 -9 -10 -9 -10 -10 -10 -10 -10 -10 -9 -9 -10 -10 -10 -10 -10 -10 -10 -10 -10 -10 -10 -10 -10 -10 -10 -10 -10 -10 -10 -10 -10 -10 -10 -10 -10
-9 -9 -9 -9 -9 -9 -9 -9 -9 -9 -9 -9 -10 -10 -10 -9 -9 -9 -9 -9 -9 -10 -10 -9 -10 -9 -10 -10 -10 -10 -10 -10 -10 -10 -10 -10 -10 -10 -10 -10 -10 -9 -9 -9 -9 -10 -10 -10 -9
-9 -9 -8 -8 -9 -9 -9 -9 -9 -9 -9 -10 -10 -10 -10 -10 -9 -9 -9 -9 -9 -9 -9 -9 -9 -9 -9 -9 -9 -10 -10 -10 -10 -10 -10 -10 -10 -9 -9 -9 -9 -9 -9 -9 -10 -10 -10 -10 -10
-8 -9 -9 -8 -9 -8 -9 -9 -9 -9 -9 -9 -9 -10 -9 -10 -9 -9 -9 -9 -9 -9 -9 -9 -9 -9 -9 -9 -9 -9 -9 -9 -9 -9 -9 -9 -9 -9 -9 -9 -9 -9 -9 -9 -9 -9 -9 -9 -9
-9 -9 -9 -9 -9 -9 -9 -9 -9 -9 -9 -9 -9 -9 -9 -9 -9 -9 -9 -9 -9 -9 -9 -9 -9 -9 -9 -9 -9 -9 -9 -9 -9 -9 -9 -9 -9 -9 -9 -9 -9 -9 -10 -10 -9 -9 -9 -9 -9
-9 -9 -9 -9 -9 -9 -9 -9 -9 -9 -10 -9 -9 -10 -9 -9 -9 -9 -9 -9 -9 -9 -9 -9 -9 -9 -9 -9 -9 -9 -9 -9 -9 -9 -9 -9 -9 -9 -9 -9 -9 -9 -9 -9 -9 -9 -9 -9 -9
-9 -10 -10 -10 -10 -9 -10 -9 -9 -9 -10 -10 -10 -10 -10 -9 -9 -9 -9 -9 -9 -9 -9 -9 -9 -9 -9 -9 -9 -9 -9 -9 -9 -9 -9 -9 -9 -9 -9 -9 -9 -9 -9 -9 -9 -9 -9 -9 -9
-10 -10 -10 -10 -10 -10 -10 -10 -10 -10 -9 -10 -10 -10 -10 -10 -10 -9 -9 -9 -9 -9 -9 -9 -9 -9 -9 -9 -9 -9 -9 -9 -9 -9 -9 -9 -9 -9 -9 -9 -9 -9 -9 -9 -9 -9 -9 -9 -9
-9 -10 -10 -10 -10 -10 -10 -10 -10 -10 -10 -9 -9 -10 -10 -10 -10 -10 -10 -10 -9 -9 -9 -9 -9 -9 -9 -9 -9 -9 -9 -9 -9 -9 -9 -9 -9 -9 -9 -9 -9 -9 -9 -9 -9 -9 -9 -9 -9
-9 -10 -10 -10 -10 -10 -10 -10 -10 -10 -10 -10 -9 -10 -9 -10 -10 -10 -10 -10 -10 -9 -9 -9 -9 -9 -9 -9 -9 -9 -9 -9 -9 -9 -10 -9 -9 -9 -9 -9 -9 -9 -9 -9 -9 -9 -9 -9 -9
-9 -10 -10 -10 -10 -10 -10 -10 -10 -9 -11 -10 -10 -10 -10 -10 -10 -10 -10 -10 -10 -10 -10 -10 -9 -9 -9 -9 -9 -9 -9 -9 -9 -9 -10 -9 -10 -10 -10 -9 -9 -9 -9 -9 -9 -9 -9 -9 -9
-9 -10 -10 -10 -10 -10 -10 -10 -10 -10 -11 -11 -10 -10 -10 -10 -10 -10 -10 -10 -10 -10 -10 -10 -9 -10 -9 -9 -9 -9 -9 -9 -9 -9 -9 -9 -9 -10 -10 -9 -9 -9 -9 -9 -9 -9 -9 -9 -9
-10 -10 -10 -10 -11 -11 -10 -10 -10 -11 -11 -11 -11 -11 -11 -10 -10 -10 -10 -10 -10 -10 -10 -9 -9 -9 -9 -10 -9 -9 -10 -10 -10 -10 -10 -9 -9 -9 -9 -10 -10 -10 -10 -10 -10 -10 -10 -10 -9
-10 -10 -10 -10 -11 -11 -10 -9 -10 -11 -11 -11 -11 -11 -11 -11 -10 -10 -10 -10 -10 -10 -9 -10 -9 -9 -9 -9 -9 -10 -10 -10 -10 -10 -10 -10 -10 -10 -10 -10 -10 -10 -10 -10 -9 -10 -9 -9 -10
-10 -10 -11 -11 -11 -10 -11 -9 -10 -11 -11 -11 -11 -11 -11 -11 -11 -11 -11 -10 -10 -10 -10 -9 -10 -10 -9 -9 -9 -10 -10 -10 -10 -10 -10 -10 -10 -10 -10 -10 -10 -10 -10 -10 -10 -10 -10 -10 -10
-11 -11 -11 -10 -10 -10 -11 -10 -10 -10 -10 -10 -10 -11 -11 -11 -11 -11 -10 -10 -10 -10 -10 -10 -10 -10 -10 -9 -9 -10 -10 -10 -10 -10 -10 -10 -10 -10 -10 -10 -10 -10 -10 -10 -10 -10 -10 -10 -10
-11 -11 -11 -11 -11 -10 -10 -10 -10 -10 -10 -10 -10 -10 -10 -11 -10 -10 -10 -10 -10 -10 -10 -10 -9 -10 -9 -9 -9 -9 -10 -10 -10 -10 -10 -10 -10 -10 -10 -10 -10 -10 -10 -10 -10 -10 -10 -10 -10
-11 -11 -11 -11 -12 -11 -10 -10 -9 -9 -9 -9 -10 -10 -10 -11 -11 -11 -10 -10 -10 -10 -10 -10 -9 -9 -9 -9 -9 -9 -10 -10 -10 -10 -10 -10 -10 -10 -11 -11 -10 -10 -10 -10 -10 -10 -10 -10 -10
-11 -11 -11 -11 -12 -11 -10 -9 -9 -9 -9 -9 -9 -10 -10 -10 -10 -10 -10 -10 -10 -10 -10 -10 -10 -10 -9 -9 -9 -9 -10 -10 -10 -10 -11 -11 -11 -11 -11 -10 -10 -10 -10 -10 -10 -10 -10 -10 -10
-11 -11 -11 -11 -11 -11 -10 -8 -8 -9 -9 -10 -10 -10 -10 -10 -10 -10 -10 -10 -10 -10 -10 -10 -10 -10 -9 -9 -9 -10 -10 -11 -11 -11 -11 -11 -11 -11 -11 -11 -11 -11 -10 -10 -10 -10 -10 -11 -10
-11 -12 -12 -11 -11 -10 -10 -6 -7 -9 -9 -9 -10 -10 -10 -10 -10 -10 -10 -11 -10 -10 -10 -10 -10 -10 -10 -9 -10 -10 -11 -11 -11 -11 -11 -11 -11 -11 -11 -11 -11 -11 -11 -11 -11 -11 -11 -11 -11
-11 -13 -13 -12 -11 -11 -10 -10 -7 -9 -9 -9 -9 -10 -10 -10 -10 -10 -10 -10 -11 -10 -10 -10 -10 -10 -10 -10 -10 -11 -11 -11 -11 -11 -11 -11 -11 -12 -12 -11 -11 -11 -11 -11 -11 -11 -11 -11 -11
-13 -12 -14 -14 -13 -9 -11 -12 -4 -8 -9 -9 -9 -9 -10 -10 -10 -10 -10 -10 -10 -11 -10 -10 -10 -10 -10 -10 -11 -11 -11 -11 -12 -12 -12 -11 -12 -12 -12 -11 -11 -11 -11 -11 -11 -11 -11 -11 -11
-14 -13 -13 -13 -13 -10 -10 -11 -8 -9 -9 -10 -10 -10 -10 -10 -11 -11 -11 -10 -10 -10 -10 -10 -10 -10 -11 -12 -12 -13 -12 -13 -13 -12 -12 -12 -12 -12 -12 -11 -11 -11 -11 -11 -12 -12 -12 -12 -12
-14 -15 -15 -15 -13 -11 -12 -9 -8 -10 -10 -11 -11 -11 -10 -11 -11 -11 -12 -11 -12 -11 -11 -11 -11 -11 -11 -12 -12 -12 -12 -13 -13 -13 -12 -12 -13 -13 -13 -12 -12 -11 -12 -12 -12 -12 -12 -13 -12
-13 -13 -14 -16 -15 -14 -11 -10 -10 -10 -11 -10 -11 -12 -12 -11 -13 -13 -12 -12 -12 -12 -13 -13 -12 -12 -12 -12 -13 -12 -12 -13 -12 -13 -13 -13 -13 -13 -13 -13 -12 -12 -12 -12 -12 -12 -12 -12 -12
-15 -15 -15 -15 -16 -15 -13 -11 -10 -10 -11 -11 -12 -13 -13 -13 -14 -15 -14 -14 -14 -15 -13 -13 -13 -14 -14 -13 -13 -13 -13 -13 -13 -13 -13 -13 -14 -14 -14 -14 -14 -13 -13 -13 -13 -13 -13 -13 -13
-16 -17 -17 -17 -16 -16 -16 -13 -12 -11 -11 -12 -13 -14 -14 -16 -16 -16 -15 -15 -16 -15 -15 -15 -15 -15 -15 -14 -14 -13 -13 -13 -13 -14 -14 -14 -14 -15 -14 -14 -14 -14 -14 -14 -14 -14 -14 -14 -14
-17 -17 -17 -17 -17 -17 -17 -16 -13 -14 -14 -14 -13 -15 -16 -16 -17 -17 -17 -16 -17 -17 -16 -16 -16 -16 -16 -15 -15 -15 -14 -14 -14 -14 -15 -15 -15 -15 -15 -15 -15 -15 -15 -15 -15 -15 -15 -15 -15
Height
5885 5884 5883 5882 5882 5879 5878 5878 5875 5873 5873 5872 5871 5870 5869 5869 5870 5871 5869 5868 5867 5867 5866 5866 5865 5865 5865 5865 5865 5866 5866 5866 5867 5868 5869 5869 5869 5870 5871 5872 5873 5873 5874 5874 5875 5874 5874 5874 5874
5883 5882 5880 5878 5878 5876 5876 5874 5872 5872 5871 5870 5869 5868 5867 5866 5866 5867 5866 5866 5865 5866 5865 5865 5865 5865 5865 5865 5865 5865 5865 5866 5866 5866 5867 5867 5868 5868 5870 5871 5871 5871 5872 5873 5873 5873 5873 5873 5873
5882 5881 5879 5877 5875 5875 5874 5872 5871 5870 5868 5868 5867 5866 5865 5864 5864 5864 5864 5863 5863 5863 5863 5863 5863 5864 5864 5864 5864 5865 5865 5865 5865 5865 5866 5866 5867 5867 5868 5868 5869 5870 5871 5871 5871 5872 5871 5871 5872
5881 5880 5879 5877 5874 5873 5873 5872 5870 5869 5868 5867 5866 5865 5864 5862 5861 5861 5861 5860 5860 5861 5861 5861 5862 5862 5862 5862 5863 5863 5863 5864 5864 5865 5865 5865 5865 5865 5866 5867 5867 5868 5868 5869 5869 5870 5870 5869 5869
5880 5879 5877 5876 5875 5872 5872 5871 5870 5868 5867 5866 5865 5864 5863 5861 5859 5858 5858 5858 5857 5858 5858 5858 5858 5859 5860 5860 5861 5861 5861 5862 5863 5862 5862 5863 5864 5865 5865 5866 5866 5866 5866 5866 5867 5867 5867 5866 5867
5880 5879 5877 5875 5874 5872 5871 5870 5869 5868 5866 5866 5865 5862 5862 5861 5859 5858 5857 5855 5855 5855 5855 5855 5855 5856 5856 5857 5857 5857 5858 5859 5859 5859 5860 5860 5861 5860 5861 5862 5862 5863 5863 5863 5863 5864 5863 5863 5864
5879 5878 5876 5875 5873 5871 5870 5868 5867 5866 5865 5864 5864 5862 5860 5859 5858 5857 5856 5854 5853 5853 5852 5851 5851 5852 5852 5852 5853 5854 5854 5855 5855 5856 5856 5857 5856 5857 5857 5858 5858 5858 5858 5859 5859 5859 5860 5860 5860
5878 5876 5875 5874 5872 5871 5869 5867 5866 5865 5865 5863 5862 5860 5858 5857 5856 5855 5854 5852 5852 5851 5849 5849 5848 5848 5847 5848 5848 5849 5849 5849 5850 5851 5852 5852 5853 5853 5853 5853 5854 5853 5854 5854 5854 5855 5856 5857 5857
5876 5875 5873 5871 5871 5869 5868 5866 5865 5863 5862 5861 5860 5858 5856 5854 5853 5852 5852 5850 5848 5848 5847 5846 5845 5845 5845 5844 5844 5843 5844 5844 5844 5845 5846 5847 5847 5848 5848 5848 5849 5849 5849 5849 5850 5850 5850 5851 5852
5873 5871 5869 5868 5867 5866 5864 5863 5861 5860 5858 5858 5857 5855 5853 5851 5849 5848 5847 5847 5845 5844 5843 5842 5841 5841 5840 5839 5839 5839 5838 5838 5839 5839 5840 5840 5841 5842 5842 5842 5843 5842 5843 5843 5843 5843 5845 5845 5845
5868 5866 5863 5863 5861 5860 5858 5858 5856 5855 5854 5852 5852 5851 5849 5847 5846 5844 5843 5842 5841 5840 5839 5837 5837 5836 5835 5834 5834 5833 5832 5833 5833 5833 5834 5834 5834 5834 5835 5835 5835 5836 5836 5836 5836 5837 5837 5837 5837
5863 5860 5857 5858 5855 5853 5850 5850 5850 5850 5846 5846 5845 5845 5844 5841 5840 5838 5837 5836 5835 5835 5833 5832 5832 5831 5830 5829 5828 5827 5827 5826 5826 5826 5827 5827 5827 5827 5827 5827 5828 5828 5828 5828 5828 5828 5828 5828 5828
5855 5855 5851 5851 5849 5845 5842 5844 5842 5845 5837 5837 5838 5838 5837 5836 5834 5833 5832 5829 5828 5828 5826 5825 5825 5824 5823 5823 5821 5821 5820 5819 5820 5820 5820 5820 5820 5819 5819 5819 5819 5819 5819 5820 5820 5820 5820 5820 5821
5846 5846 5845 5846 5842 5835 5833 5837 5835 5838 5827 5830 5828 5828 5828 5828 5827 5826 5824 5822 5821 5819 5819 5817 5817 5816 5816 5815 5813 5812 5812 5812 5812 5812 5812 5812 5812 5811 5812 5811 5810 5810 5810 5810 5810 5810 5811 5812 5812
5837 5835 5836 5840 5833 5825 5823 5830 5831 5825 5821 5823 5821 5820 5818 5819 5817 5817 5816 5814 5814 5812 5810 5809 5808 5807 5807 5806 5805 5804 5804 5804 5804 5804 5804 5805 5804 5804 5804 5803 5802 5801 5801 5801 5800 5801 5801 5801 5801
5828 5826 5827 5833 5826 5819 5815 5820 5826 5819 5814 5816 5816 5814 5811 5810 5809 5807 5806 5804 5804 5804 5804 5801 5799 5799 5798 5798 5797 5796 5796 5796 5795 5796 5797 5797 5796 5796 5796 5795 5794 5793 5792 5791 5791 5791 5790 5791 5791
5821 5813 5814 5819 5821 5812 5806 5807 5820 5815 5809 5809 5809 5807 5805 5803 5802 5799 5798 5796 5795 5795 5794 5793 5792 5791 5790 5788 5788 5787 5786 5787 5786 5787 5788 5788 5788 5787 5786 5786 5785 5785 5784 5783 5782 5781 5780 5780 5780
5810 5800 5802 5805 5816 5802 5794 5794 5801 5806 5800 5800 5801 5799 5798 5795 5796 5790 5790 5788 5787 5786 5786 5784 5784 5783 5781 5779 5779 5779 5778 5778 5778 5778 5779 5779 5778 5777 5777 5776 5774 5774 5773 5772 5771 5770 5769 5769 5769
5798 5794 5791 5796 5802 5791 5785 5778 5782 5791 5791 5792 5791 5790 5788 5785 5786 5783 5780 5779 5779 5778 5777 5775 5773 5773 5772 5771 5770 5770 5769 5768 5770 5770 5769 5768 5767 5766 5765 5764 5763 5763 5762 5760 5760 5759 5758 5759 5758
5790 5788 5784 5784 5789 5778 5771 5765 5771 5776 5781 5782 5779 5781 5778 5776 5775 5774 5771 5770 5769 5768 5767 5766 5764 5763 5763 5762 5760 5760 5760 5760 5760 5760 5758 5758 5757 5756 5755 5754 5753 5752 5751 5749 5748 5747 5747 5747 5747
5784 5779 5779 5771 5771 5767 5760 5747 5760 5768 5767 5771 5770 5768 5767 5766 5765 5764 5761 5761 5760 5759 5757 5755 5754 5753 5753 5752 5751 5750 5750 5750 5750 5749 5748 5747 5746 5745 5744 5743 5741 5740 5739 5738 5737 5736 5735 5735 5735
5766 5774 5766 5762 5758 5751 5754 5728 5748 5758 5758 5760 5758 5758 5756 5754 5753 5752 5750 5749 5748 5747 5746 5745 5743 5742 5742 5741 5740 5739 5738 5739 5739 5738 5737 5736 5735 5733 5732 5730 5729 5728 5728 5727 5726 5725 5723 5722 5722
5757 5756 5754 5753 5749 5744 5736 5735 5729 5742 5743 5745 5749 5746 5746 5745 5744 5741 5740 5738 5737 5736 5734 5733 5733 5732 5731 5729 5727 5726 5726 5726 5726 5726 5726 5725 5723 5721 5718 5717 5716 5715 5714 5714 5713 5712 5711 5709 5709
5746 5744 5742 5739 5736 5731 5732 5734 5721 5721 5727 5731 5732 5734 5732 5733 5730 5730 5729 5728 5726 5724 5723 5721 5720 5719 5718 5717 5716 5715 5715 5715 5714 5715 5715 5715 5712 5708 5705 5702 5701 5700 5700 5700 5699 5699 5699 5698 5696
5736 5733 5725 5719 5717 5718 5724 5721 5719 5713 5712 5716 5717 5719 5720 5718 5716 5713 5715 5716 5716 5714 5711 5708 5708 5708 5706 5705 5704 5703 5703 5702 5701 5701 5701 5700 5700 5698 5695 5692 5689 5685 5684 5684 5685 5685 5685 5684 5682
5719 5717 5712 5702 5707 5708 5711 5704 5710 5708 5706 5704 5698 5700 5700 5702 5703 5703 5698 5699 5699 5701 5701 5698 5697 5695 5693 5694 5694 5693 5692 5690 5688 5686 5685 5686 5684 5683 5681 5681 5679 5677 5674 5671 5669 5667 5667 5667 5666
5707 5699 5701 5687 5690 5685 5692 5695 5698 5697 5694 5691 5688 5685 5683 5687 5686 5686 5687 5686 5685 5684 5686 5688 5685 5683 5683 5683 5683 5682 5680 5678 5676 5674 5673 5670 5668 5667 5664 5664 5664 5664 5662 5659 5656 5654 5652 5649 5647
5686 5689 5683 5672 5664 5663 5673 5674 5680 5684 5681 5677 5677 5677 5675 5673 5672 5673 5673 5674 5672 5670 5672 5671 5671 5670 5670 5670 5668 5668 5666 5664 5662 5661 5660 5656 5654 5653 5652 5649 5649 5648 5647 5646 5644 5642 5640 5637 5634
5669 5665 5663 5656 5649 5639 5639 5652 5677 5668 5667 5667 5665 5661 5658 5660 5660 5661 5660 5659 5655 5654 5653 5654 5654 5655 5656 5656 5655 5652 5650 5650 5648 5646 5645 5643 5640 5638 5636 5637 5634 5632 5630 5629 5628 5625 5621 5619 5616
5651 5648 5647 5636 5635 5630 5620 5617 5663 5658 5652 5651 5649 5648 5641 5642 5643 5645 5643 5639 5637 5638 5640 5640 5636 5636 5637 5638 5637 5637 5635 5633 5632 5631 5629 5625 5624 5624 5622 5621 5619 5616 5616 5614 5610 5606 5602 5599 5595
Wind_Speed
16 16 16 17 17 18 16 16 15 17 13 11 13 14 13 13 9 7 7 7 9 9 8 6 6 4 3 3 1 3 4 4 5 5 5 3 3 2 2 0 2 4 4 4 4 3 5 9 12
12 12 13 14 14 13 13 10 10 9 9 10 11 12 14 15 13 11 10 10 11 9 11 10 9 9 7 6 6 5 2 2 2 1 1 0 0 1 1 2 3 3 4 6 6 5 5 5 7
9 11 12 12 13 11 10 9 10 9 10 11 13 13 13 13 12 12 13 13 13 11 11 11 12 12 12 12 9 8 7 6 6 6 5 5 5 4 5 5 6 6 7 8 8 9 8 8 9
8 9 11 13 13 12 9 7 8 8 9 11 11 13 13 12 12 12 12 14 15 14 13 12 12 13 14 14 14 13 12 11 10 10 9 9 8 9 8 9 10 10 12 13 13 13 13 12 12
8 8 9 11 11 13 14 10 9 10 10 11 13 13 12 13 13 12 11 13 14 14 15 16 15 14 15 16 17 17 16 15 14 13 13 12 12 12 13 13 15 15 16 17 18 19 18 16 16
8 8 9 10 9 10 11 10 11 10 11 12 13 15 14 13 12 12 11 11 11 12 15 17 18 17 18 17 19 20 21 19 17 15 16 16 16 16 15 16 17 18 19 19 20 20 20 19 16
11 10 9 9 9 9 10 12 11 11 12 13 12 13 15 13 12 12 11 11 12 11 13 15 17 18 19 20 20 21 23 23 22 20 19 19 18 19 20 21 21 20 20 21 21 20 20 18 18
13 13 12 12 12 11 12 12 12 12 12 12 14 13 15 13 12 11 10 11 10 11 11 13 15 16 18 20 21 23 22 24 24 23 22 22 23 24 25 25 26 25 25 25 25 24 23 23 22
20 19 19 18 16 14 14 14 15 14 14 14 12 15 14 13 13 13 13 13 13 12 11 11 12 14 15 18 19 22 24 24 25 26 26 26 26 26 26 26 26 27 28 27 27 29 30 31 31
26 26 27 24 25 23 22 19 18 18 17 18 16 19 19 17 16 15 14 14 16 15 14 16 15 15 15 16 19 21 23 25 27 28 29 30 29 29 29 30 30 30 31 30 31 32 33 35 36
31 31 32 31 31 29 29 29 26 23 19 23 21 21 21 23 22 20 19 18 17 18 18 19 18 19 19 20 20 21 23 26 28 30 31 32 33 32 32 33 34 34 34 36 36 37 37 38 38
32 32 35 33 34 33 34 33 32 32 23 28 27 25 24 25 26 26 25 23 24 22 23 23 23 21 20 21 23 23 25 26 26 28 30 32 33 35 36 36 36 37 36 37 37 40 41 41 41
36 35 36 35 36 37 39 35 36 30 32 33 31 29 28 27 28 29 29 30 30 27 28 27 26 25 23 22 25 25 27 27 26 26 27 28 31 33 36 38 40 40 39 41 41 41 42 42 43
37 36 35 34 35 40 42 34 33 24 36 33 34 34 32 31 31 31 32 33 32 33 31 31 28 28 27 27 29 29 29 29 28 29 28 29 30 32 34 36 38 40 41 43 44 44 44 45 45
37 37 34 27 32 41 40 29 24 28 36 33 33 33 34 32 34 34 34 35 34 35 35 34 33 31 30 30 31 31 29 29 28 28 30 30 30 32 33 33 35 38 40 42 44 46 46 47 49
40 39 34 24 32 39 40 32 21 27 32 30 29 29 28 27 30 31 33 35 35 34 34 36 36 32 33 33 33 33 31 29 29 29 29 29 29 30 29 31 32 34 37 39 41 43 45 47 48
37 43 40 34 31 39 44 43 28 31 36 31 27 28 27 27 29 33 33 33 34 33 34 35 35 33 34 36 33 32 31 29 31 30 30 30 31 32 33 34 35 35 37 40 41 43 44 45 48
42 50 47 43 31 43 50 49 41 35 39 36 29 27 29 30 29 35 32 31 30 31 32 34 34 34 37 38 35 34 32 32 32 31 31 32 32 32 32 33 36 38 40 39 40 42 44 46 48
48 51 53 47 38 48 52 55 50 40 37 36 35 31 27 28 28 32 33 31 28 30 33 35 36 37 37 36 35 34 35 35 33 33 33 34 36 35 35 36 37 37 38 40 41 43 44 45 45
50 50 51 49 44 51 54 56 52 46 38 32 33 30 29 32 32 33 34 34 32 33 33 34 37 38 36 37 36 34 35 34 34 35 37 39 39 37 37 38 37 38 39 39 40 42 43 45 46
47 50 49 54 52 52 54 58 47 40 38 35 33 33 33 34 36 35 35 37 37 36 38 37 36 37 36 37 36 36 36 36 37 39 41 42 41 41 42 42 42 42 41 41 42 44 45 45 45
51 43 51 54 56 58 54 56 46 40 42 38 38 33 30 34 34 34 35 38 39 40 39 39 40 42 38 39 39 39 40 39 41 43 42 41 41 43 44 45 45 45 44 45 45 46 46 46 46
52 50 51 53 56 59 61 62 55 46 41 40 31 34 32 28 31 34 36 39 39 39 39 38 36 39 42 43 43 42 41 41 43 42 42 43 44 46 47 48 47 47 48 49 49 48 47 47 47
50 53 49 51 55 62 58 57 48 53 48 43 44 39 41 35 32 34 35 36 37 39 41 43 43 44 46 46 44 42 42 44 46 46 44 45 46 50 52 52 51 52 54 53 52 52 50 49 49
48 52 58 62 60 62 61 57 52 55 58 55 52 48 44 44 46 42 38 36 38 40 43 46 46 47 47 43 40 41 44 47 49 49 49 48 49 53 58 58 58 57 59 58 57 56 56 54 55
57 58 61 65 65 64 62 66 54 60 59 61 59 57 61 51 47 50 42 38 36 30 35 40 40 42 46 46 48 48 50 52 54 54 54 54 49 50 54 59 62 63 63 60 57 54 53 53 54
61 66 60 63 65 69 70 69 62 61 62 65 62 58 60 62 49 48 45 33 38 41 36 36 44 47 47 47 49 51 54 56 59 58 55 53 50 50 53 57 59 60 61 60 59 59 56 53 54
58 56 60 66 71 72 72 74 69 65 65 67 65 62 61 61 55 24 25 34 45 51 44 44 46 54 56 51 53 57 59 58 60 61 58 55 53 51 52 57 58 58 58 58 56 53 57 59 61
52 55 59 64 72 75 77 70 59 63 64 63 61 60 60 52 50 50 53 53 54 50 45 44 52 52 56 57 54 56 58 59 59 60 62 60 55 51 53 56 56 57 56 55 56 59 58 62 65
61 54 50 56 59 68 75 78 45 56 57 58 62 58 56 56 50 47 53 55 56 49 49 57 59 58 62 62 58 57 57 57 59 60 56 55 54 55 54 53 54 55 51 58 59 63 63 65 68
Wind_Direction
307 308 308 306 307 307 311 315 306 301 311 320 321 324 321 317 313 303 293 293 285 289 288 294 304 313 319 314 357 101 102 104 100 90 95 97 83 71 63 353 274 273 270 262 259 252 263 268 265
312 317 317 312 315 328 327 316 305 309 318 329 323 321 314 307 302 297 284 278 276 279 277 277 276 286 286 280 282 287 256 282 301 269 166 211 256 356 336 314 308 303 297 286 272 263 258 255 261
337 338 332 330 338 348 336 333 328 339 343 339 333 325 317 311 305 290 278 274 270 271 271 270 271 266 267 273 270 267 267 258 268 277 276 274 277 284 297 306 303 302 293 291 296 289 273 267 274
350 352 349 352 360 355 4 346 334 341 341 350 345 343 340 331 306 293 281 269 262 258 263 266 265 266 266 264 266 268 269 267 264 258 256 259 266 277 281 283 286 291 293 294 290 283 281 281 281
355 355 350 355 6 357 5 359 357 355 346 348 345 344 350 343 334 321 303 292 280 265 257 257 260 261 264 269 271 269 267 265 264 267 269 268 266 262 264 272 277 278 279 282 282 281 280 280 284
346 353 347 344 350 345 346 347 360 360 345 346 346 336 338 345 343 336 327 307 290 280 268 261 258 261 263 262 266 271 271 266 263 266 271 274 276 276 274 273 274 278 279 281 281 277 276 275 276
328 331 337 333 327 320 331 330 342 342 337 337 345 336 327 325 336 336 332 327 317 303 284 270 266 264 267 267 264 265 267 268 266 264 265 269 272 274 272 268 271 275 280 283 285 283 274 268 273
318 321 323 320 323 321 321 319 324 326 329 329 338 332 326 325 321 322 324 325 322 313 303 292 282 272 270 267 266 263 263 260 261 265 266 265 263 264 266 268 269 273 279 280 279 274 268 267 271
309 311 311 314 315 315 314 314 315 315 316 321 332 327 327 322 317 308 306 303 301 300 300 297 293 285 279 275 268 265 263 262 262 262 266 267 266 263 261 262 264 265 266 267 269 266 265 266 265
299 303 302 306 308 309 308 306 306 306 308 302 306 310 311 309 310 309 304 302 299 295 289 287 287 287 288 286 280 273 266 264 261 261 264 265 265 266 264 265 267 268 267 267 269 270 268 265 266
294 296 297 302 302 302 300 301 301 300 296 293 296 294 297 298 298 296 295 294 292 293 293 290 291 290 285 280 278 278 275 269 266 266 265 266 269 270 270 269 270 270 269 269 267 268 270 271 267
287 290 291 294 296 294 292 294 294 300 287 288 292 288 287 284 287 289 292 289 286 289 287 285 283 285 284 281 277 275 273 272 271 269 269 270 271 273 273 273 272 272 272 271 271 270 270 271 271
288 286 288 290 291 288 287 290 294 300 285 289 285 284 282 280 278 278 282 284 283 283 282 284 285 282 280 282 281 275 270 269 269 268 269 271 271 271 273 274 274 272 270 270 271 270 266 267 267
289 287 285 289 289 285 284 287 294 295 283 284 283 284 282 278 274 273 273 272 277 278 278 279 281 279 279 282 280 276 272 269 268 266 268 269 271 273 275 274 275 274 274 272 270 271 272 269 268
290 289 291 295 281 282 284 287 295 288 291 291 289 288 286 284 278 276 274 272 271 272 275 277 275 278 278 278 278 275 273 270 269 267 267 271 272 272 274 276 276 275 275 273 273 271 270 268 267
291 293 292 276 279 284 282 288 284 285 288 288 287 285 287 284 281 280 276 274 273 272 272 272 275 276 277 278 276 275 273 268 268 268 270 273 276 276 277 278 276 276 276 276 274 272 271 268 267
298 294 287 282 286 287 286 287 288 281 285 288 278 278 277 277 278 275 276 276 273 270 269 269 272 274 275 275 272 273 273 270 270 272 274 278 281 281 281 279 278 276 278 277 276 272 269 268 266
288 285 286 289 290 284 282 284 281 278 280 284 289 285 280 275 274 275 276 272 271 273 276 275 274 272 272 275 277 276 273 270 269 273 280 284 284 283 282 278 278 276 277 275 275 272 269 268 270
284 285 289 293 295 286 283 281 283 280 277 283 281 281 284 281 278 275 274 275 276 275 277 277 274 272 272 274 276 274 267 266 270 275 281 281 283 283 283 281 279 279 276 273 273 272 271 269 267
282 288 287 289 291 280 282 284 286 288 287 284 282 280 278 277 275 277 277 276 272 276 274 271 267 267 269 275 271 269 266 268 273 279 281 285 285 282 281 282 281 280 279 278 274 273 273 271 270
278 280 288 285 284 280 285 283 286 290 291 291 287 283 282 276 275 274 270 269 269 274 271 271 267 265 270 272 272 271 271 273 274 279 283 284 284 284 284 283 281 279 278 278 278 276 274 272 271
271 278 275 278 281 284 280 286 283 292 290 288 283 278 276 278 276 271 269 268 268 272 271 272 269 266 269 270 270 269 268 273 276 279 280 281 283 283 283 282 280 278 278 279 277 275 274 272 270
273 271 271 274 277 278 277 285 297 294 291 288 284 285 279 272 274 272 272 273 275 273 270 268 265 263 266 267 268 269 272 274 274 275 278 279 282 283 283 283 281 280 279 280 281 280 277 274 273
274 273 273 271 271 271 274 281 288 292 288 287 287 286 290 283 269 268 272 274 276 272 271 266 261 259 262 264 266 269 270 271 273 276 280 282 284 283 281 278 278 279 280 281 281 281 280 277 276
274 273 272 271 268 269 275 273 277 279 290 290 288 285 283 284 285 277 278 269 266 268 268 269 268 265 263 263 266 271 271 273 276 279 279 279 282 280 279 277 278 277 277 279 281 282 282 280 280
269 267 268 270 273 276 272 272 276 283 284 286 288 289 288 286 281 281 290 287 266 267 263 262 262 261 260 264 270 272 274 275 277 279 280 283 279 275 275 273 275 278 280 280 280 280 280 280 281
272 270 272 267 268 270 272 271 271 275 277 280 282 284 288 293 296 295 285 262 267 285 279 256 253 259 261 263 268 271 270 272 274 276 278 279 275 272 271 271 272 272 274 277 278 279 278 279 278
279 275 271 269 267 266 266 266 267 271 275 274 280 288 291 289 294 269 260 257 263 278 277 262 254 256 263 268 267 267 270 273 274 277 278 276 273 271 269 268 269 272 273 273 274 276 281 283 284
277 277 273 267 262 265 265 258 263 267 272 281 285 283 281 281 282 277 281 282 277 280 259 262 258 266 261 273 271 270 271 273 275 276 277 277 275 269 269 271 273 271 271 271 278 283 284 284 283
273 275 272 273 273 273 269 267 253 263 267 268 272 279 284 286 292 279 277 278 277 267 251 268 272 269 272 276 274 271 273 277 277 277 275 273 273 273 274 274 274 273 274 282 281 279 285 284 283